TGW243 WADD-WSSS

Flight info

Callsign TGW243
Flight time N/A
Altitude 36000
Route BORGI DCT UDONO M635 SURGA T23 UGEBO UGEBO1A
Aircraft A21N/M-SDE2FGHIJ3J7RWYZ/LB1D1

Departure

Time 2026-04-29 05:59
Airport Denpasar I Gusti Ngurah Rai International Airport (WADD)

Arrival

Time N/A
Airport Singapore Changi Airport (WSSS)
Time Latitude Longitude Altitude Speed Heading
2026-04-29 04:59 -8.74546 115.16934 38 ft 0 kts 358°
2026-04-29 05:48 -8.74551 115.16934 38 ft 4 kts 358°
2026-04-29 05:48 -8.74578 115.16936 38 ft 4 kts 355°
2026-04-29 05:48 -8.74605 115.16939 38 ft 4 kts 351°
2026-04-29 05:49 -8.74631 115.16944 38 ft 4 kts 344°
2026-04-29 05:49 -8.74656 115.16953 37 ft 4 kts 324°
2026-04-29 05:49 -8.74669 115.16970 37 ft 3 kts 269°
2026-04-29 05:49 -8.74669 115.16971 37 ft 4 kts 267°
2026-04-29 05:53 -8.74669 115.16966 37 ft 2 kts 267°
2026-04-29 05:53 -8.74670 115.16937 37 ft 5 kts 267°
2026-04-29 05:53 -8.74672 115.16893 37 ft 7 kts 267°
2026-04-29 05:54 -8.74674 115.16851 37 ft 6 kts 268°
2026-04-29 05:54 -8.74676 115.16804 37 ft 8 kts 267°
2026-04-29 05:54 -8.74678 115.16742 37 ft 10 kts 268°
2026-04-29 05:54 -8.74682 115.16667 38 ft 12 kts 267°
2026-04-29 05:55 -8.74686 115.16578 38 ft 14 kts 268°
2026-04-29 05:55 -8.74690 115.16477 38 ft 15 kts 267°
2026-04-29 05:55 -8.74694 115.16365 38 ft 17 kts 268°
2026-04-29 05:55 -8.74699 115.16241 38 ft 18 kts 268°
2026-04-29 05:56 -8.74704 115.16108 38 ft 20 kts 268°
2026-04-29 05:56 -8.74710 115.15964 38 ft 21 kts 267°
2026-04-29 05:56 -8.74716 115.15812 38 ft 22 kts 267°
2026-04-29 05:56 -8.74723 115.15651 38 ft 24 kts 268°
2026-04-29 05:57 -8.74728 115.15517 38 ft 9 kts 267°
2026-04-29 05:57 -8.74732 115.15450 38 ft 11 kts 267°
2026-04-29 05:57 -8.74780 115.15394 37 ft 12 kts 192°
2026-04-29 05:57 -8.74862 115.15397 34 ft 11 kts 164°
2026-04-29 05:58 -8.74892 115.15462 34 ft 12 kts 92°
2026-04-29 05:58 -8.74886 115.15640 34 ft 56 kts 87°
2026-04-29 05:58 -8.74860 115.16305 33 ft 130 kts 88°
2026-04-29 05:58 -8.74816 115.17383 129 ft 170 kts 88°
2026-04-29 05:59 -8.74768 115.18556 867 ft 164 kts 89°
2026-04-29 05:59 -8.74735 115.19699 1603 ft 161 kts 89°
2026-04-29 05:59 -8.74693 115.20894 2043 ft 179 kts 89°
2026-04-29 05:59 -8.74639 115.22203 2524 ft 194 kts 88°
2026-04-29 06:00 -8.74582 115.23633 2987 ft 214 kts 87°
2026-04-29 06:00 -8.74172 115.25150 3371 ft 238 kts 60°
2026-04-29 06:00 -8.72975 115.26392 3890 ft 260 kts 33°
2026-04-29 06:00 -8.71250 115.26980 4666 ft 268 kts
2026-04-29 06:01 -8.69370 115.26973 5517 ft 273 kts 359°
2026-04-29 06:01 -8.67477 115.26689 6342 ft 279 kts 342°
2026-04-29 06:01 -8.65797 115.25687 7139 ft 286 kts 321°
2026-04-29 06:01 -8.64344 115.24295 7931 ft 290 kts 316°
2026-04-29 06:02 -8.62923 115.22827 8653 ft 295 kts 314°
2026-04-29 06:02 -8.61665 115.21176 9379 ft 299 kts 305°
2026-04-29 06:02 -8.60522 115.19413 10087 ft 301 kts 304°
2026-04-29 06:02 -8.59370 115.17621 10674 ft 310 kts 304°
2026-04-29 06:03 -8.58156 115.15752 10997 ft 327 kts 304°
2026-04-29 06:03 -8.56860 115.13788 11269 ft 344 kts 304°
2026-04-29 06:03 -8.55502 115.11739 11575 ft 359 kts 304°
2026-04-29 06:03 -8.54093 115.09610 12081 ft 367 kts 304°
2026-04-29 06:04 -8.52664 115.07454 12736 ft 371 kts 304°
2026-04-29 06:04 -8.51219 115.05279 13397 ft 375 kts 304°
2026-04-29 06:04 -8.49759 115.03083 14033 ft 379 kts 304°
2026-04-29 06:04 -8.48283 115.00858 14665 ft 382 kts 305°
2026-04-29 06:05 -8.46624 114.98750 15238 ft 386 kts 316°
2026-04-29 06:05 -8.44490 114.97112 15804 ft 388 kts 329°
2026-04-29 06:05 -8.42165 114.95698 16368 ft 391 kts 330°
2026-04-29 06:05 -8.39819 114.94284 16926 ft 395 kts 330°
2026-04-29 06:06 -8.37451 114.92843 17445 ft 399 kts 330°
2026-04-29 06:06 -8.35063 114.91379 17974 ft 403 kts 329°
2026-04-29 06:06 -8.32647 114.89929 18476 ft 406 kts 331°
2026-04-29 06:06 -8.30196 114.88487 18990 ft 409 kts 330°
2026-04-29 06:07 -8.27727 114.87028 19466 ft 412 kts 330°
2026-04-29 06:07 -8.25272 114.85576 19932 ft 417 kts 330°
2026-04-29 06:07 -8.22726 114.84072 20402 ft 420 kts 330°
2026-04-29 06:07 -8.20195 114.82580 20843 ft 423 kts 330°
2026-04-29 06:08 -8.17684 114.81090 21266 ft 426 kts 330°
2026-04-29 06:08 -8.15124 114.79574 21684 ft 428 kts 330°
2026-04-29 06:08 -8.12548 114.78043 22099 ft 431 kts 330°
2026-04-29 06:08 -8.09952 114.76506 22491 ft 434 kts 330°
2026-04-29 06:09 -8.07340 114.74961 22856 ft 437 kts 330°
2026-04-29 06:09 -8.04712 114.73400 23216 ft 440 kts 330°
2026-04-29 06:09 -8.02063 114.71827 23580 ft 443 kts 330°
2026-04-29 06:09 -7.99396 114.70246 23956 ft 446 kts 330°
2026-04-29 06:10 -7.96722 114.68662 24336 ft 447 kts 330°
2026-04-29 06:10 -7.94027 114.67066 24701 ft 450 kts 330°
2026-04-29 06:10 -7.91318 114.65468 25065 ft 452 kts 330°
2026-04-29 06:10 -7.88569 114.63918 25429 ft 454 kts 332°
2026-04-29 06:11 -7.85784 114.62401 25778 ft 456 kts 332°
2026-04-29 06:11 -7.82986 114.60883 26109 ft 458 kts 332°
2026-04-29 06:11 -7.80176 114.59358 26417 ft 460 kts 332°
2026-04-29 06:11 -7.77354 114.57821 26742 ft 462 kts 332°
2026-04-29 06:12 -7.74514 114.56283 27052 ft 464 kts 332°
2026-04-29 06:12 -7.71663 114.54739 27359 ft 466 kts 332°
2026-04-29 06:12 -7.68814 114.53163 27667 ft 469 kts 330°
2026-04-29 06:12 -7.66170 114.51236 27948 ft 471 kts 319°
2026-04-29 06:13 -7.63952 114.48797 28212 ft 473 kts 307°
2026-04-29 06:13 -7.62287 114.45935 28462 ft 476 kts 294°
2026-04-29 06:13 -7.61081 114.42821 28744 ft 478 kts 290°
2026-04-29 06:13 -7.59961 114.39663 29019 ft 479 kts 290°
2026-04-29 06:14 -7.58826 114.36499 29273 ft 481 kts 290°
2026-04-29 06:14 -7.57634 114.33348 29589 ft 481 kts 294°
2026-04-29 06:14 -7.56010 114.30413 29914 ft 479 kts 306°
2026-04-29 06:14 -7.53826 114.27893 30221 ft 478 kts 318°
2026-04-29 06:15 -7.51221 114.25832 30556 ft 476 kts 325°
2026-04-29 06:15 -7.48524 114.23906 30875 ft 474 kts 326°
2026-04-29 06:15 -7.45834 114.21993 31190 ft 473 kts 325°
2026-04-29 06:15 -7.43151 114.20070 31511 ft 472 kts 325°
2026-04-29 06:16 -7.40494 114.18142 31817 ft 470 kts 325°
2026-04-29 06:16 -7.37840 114.16216 32114 ft 469 kts 325°
2026-04-29 06:16 -7.35192 114.14294 32397 ft 469 kts 325°
2026-04-29 06:16 -7.32591 114.12402 32670 ft 468 kts 326°
2026-04-29 06:17 -7.29951 114.10484 32954 ft 468 kts 325°
2026-04-29 06:17 -7.27317 114.08573 33261 ft 465 kts 326°
2026-04-29 06:17 -7.24689 114.06676 33512 ft 465 kts 326°
2026-04-29 06:17 -7.22033 114.04751 33763 ft 464 kts 326°
2026-04-29 06:18 -7.19455 114.02878 34005 ft 463 kts 326°
2026-04-29 06:18 -7.16811 114.00955 34239 ft 462 kts 326°
2026-04-29 06:18 -7.14204 113.99071 34448 ft 462 kts 326°
2026-04-29 06:18 -7.11594 113.97181 34618 ft 462 kts 326°
2026-04-29 06:19 -7.08986 113.95291 34791 ft 462 kts 326°
2026-04-29 06:19 -7.06412 113.93426 34985 ft 462 kts 326°
2026-04-29 06:19 -7.03806 113.91537 35167 ft 461 kts 326°
2026-04-29 06:19 -7.01205 113.89651 35334 ft 461 kts 326°
2026-04-29 06:20 -6.98604 113.87759 35508 ft 461 kts 326°
2026-04-29 06:20 -6.95998 113.85871 35675 ft 461 kts 326°
2026-04-29 06:20 -6.93393 113.83993 35827 ft 461 kts 326°
2026-04-29 06:20 -6.90788 113.82109 35854 ft 460 kts 326°
2026-04-29 06:21 -6.85590 113.78346 35833 ft 461 kts 326°
2026-04-29 06:21 -6.80386 113.74584 35823 ft 460 kts 326°
2026-04-29 06:22 -6.75182 113.70823 35821 ft 461 kts 326°
2026-04-29 06:22 -6.69979 113.67062 35819 ft 460 kts 326°
2026-04-29 06:23 -6.64777 113.63307 35823 ft 461 kts 326°
2026-04-29 06:23 -6.59566 113.59540 35822 ft 461 kts 326°
2026-04-29 06:24 -6.54360 113.55779 35817 ft 461 kts 326°
2026-04-29 06:24 -6.49162 113.52021 35818 ft 460 kts 326°
2026-04-29 06:25 -6.43955 113.48260 35823 ft 462 kts 326°
2026-04-29 06:25 -6.39623 113.45131 35822 ft 461 kts 326°
2026-04-29 06:26 -6.34411 113.41372 35820 ft 461 kts 326°
2026-04-29 06:26 -6.29203 113.37603 35821 ft 462 kts 326°
2026-04-29 06:27 -6.24228 113.33528 35815 ft 465 kts 313°
2026-04-29 06:27 -6.20237 113.28415 35824 ft 465 kts 308°
2026-04-29 06:28 -6.16319 113.23237 35820 ft 465 kts 309°
2026-04-29 06:28 -6.12368 113.18082 35816 ft 466 kts 309°
2026-04-29 06:29 -6.08427 113.12908 35819 ft 466 kts 309°
2026-04-29 06:29 -6.04473 113.07753 35821 ft 467 kts 309°
2026-04-29 06:30 -5.98520 113.00008 35820 ft 467 kts 309°
2026-04-29 06:31 -5.94543 112.94836 35820 ft 469 kts 309°
2026-04-29 06:31 -5.90554 112.89656 35818 ft 469 kts 309°